Regional Weather Roundup
Issued by NWS

Home | Current Version | Previous Version | Text Only | Print | Product List | Glossary Off
Versions: 1 2 3 4 5 6 7 8 9 10 11 12 13 14 15 16 17 18 19 20 21 22 23 24 25 26 27 28 29 30 31 32 33 34 35 36 37 38 39 40 41 42 43 44 45 46 47 48 49 50

000
ASUS45 KABQ 290001
RWRNM
NEW MEXICO REGIONAL WEATHER ROUNDUP
NATIONAL WEATHER SERVICE ALBUQUERQUE NM
600 PM MDT THU APR 28 2016

NOTE: "FAIR" MEANS FEW OR NO CLOUDS BELOW 12,000 FEET AGL WITH NO
       SIGNIFICANT WEATHER OR OBSTRUCTIONS TO VISION.

      THIS PRODUCT IS RELEASED AS TWO VERSIONS.  ONE VERSION NEAR
      THE TOP OF THE HOUR CONTAINING PRELIMINARY DATA FROM ALBUQUERQUE
      AND OTHER STATIONS.  A FINAL VERSION WITH ADDITIONAL DATA IS
      ISSUED ABOUT 10 MINUTES AFTER THE HOUR.

NMZ501-503-504-510>518-290100-
NORTHWEST PLATEAU/NORTHCENTRAL MOUNTAINS

CITY           SKY/WX    TMP DP  RH WIND       PRES   REMARKS
FARMINGTON     FAIR      55  28  35 W22G33    29.71R
6HR MIN TEMP:  55; 6HR MAX TEMP:  67;

SANTA FE       PTSUNNY   63  28  26 SE21      29.73R
6HR MIN TEMP:  62; 6HR MAX TEMP:  73;

TAOS           PTSUNNY   55  25  30 SE14G22   29.80S
ANGEL FIRE     FAIR      46  34  63 SW7       29.91S

$$
NMZ402-403-502-505>509-290100-
WESTCENTRAL MOUNTAINS/SOUTHWEST MOUNTAINS

CITY           SKY/WX    TMP DP  RH WIND       PRES   REMARKS
GALLUP         PTSUNNY   57  16  20 W32G43    29.75R
6HR MIN TEMP:  57; 6HR MAX TEMP:  66;

GRANTS         FAIR      61   3  10 SW15G30   29.75R

$$
NMZ407-409-411-412-290100-
SOUTHERN DESERTS

CITY           SKY/WX    TMP DP  RH WIND       PRES   REMARKS
LORDSBURG      FAIR      77   7   6 SW24G33   29.68F
DEMING         FAIR      76  20  12 SW16G30   29.70F
6HR MIN TEMP:  72; 6HR MAX TEMP:  79;

HOLLOMAN AFB   FAIR      79  16   9 SW17      29.68F
ALAMOGORDO     FAIR      77  18  10 SW18G26   29.70F
T OR C         FAIR      75   6   7 SW22G32   29.68S
6HR MIN TEMP:  71; 6HR MAX TEMP:  77;


$$
NMZ519>523-290100-
CENTRAL VALLEYS/CENTRAL HIGHLANDS

CITY           SKY/WX    TMP DP  RH WIND       PRES   REMARKS
ALBUQUERQUE    PTSUNNY   71   9   9 S21G29    29.68S
6HR MIN TEMP:  68; 6HR MAX TEMP:  75;

DOUBLE EAGLE   PTSUNNY   70  12  11 S32G44    29.69F
CLINES CORNERS FAIR      65  11  12 S15G26    29.79S
6HR MIN TEMP:  58; 6HR MAX TEMP:  66;

BELEN          FAIR      74   8   8 SE21G32   29.67S
6HR MIN TEMP:  69; 6HR MAX TEMP:  76;

SOCORRO        NOT AVBL

$$
NMZ524>526-539-540-290100-
SOUTHCENTRAL MOUNTAINS

CITY           SKY/WX    TMP DP  RH WIND       PRES   REMARKS
RUIDOSO          N/A     64  16  15 SW26      29.85R

$$
NMZ527>531-290100-
NORTHEAST HIGHLANDS/NORTHEAST PLAINS

CITY           SKY/WX    TMP DP  RH WIND       PRES   REMARKS
LAS VEGAS      PTSUNNY   58  26  29 SE22G35   29.83F
6HR MIN TEMP:  54; 6HR MAX TEMP:  63;

RATON          CLOUDY    47  37  68 SW35G45   29.88R THUNDER
6HR MIN TEMP:  47; 6HR MAX TEMP:  58; 6HR PCP: TRACE;

CLAYTON        FAIR      57  40  52 NE24      29.84F
6HR MIN TEMP:  46; 6HR MAX TEMP:  59;


$$
NMZ532>537-290100-
EASTCENTRAL PLAINS

CITY           SKY/WX    TMP DP  RH WIND       PRES   REMARKS
TUCUMCARI      FAIR      70  44  39 NE26G33   29.70F
6HR MIN TEMP:  68; 6HR MAX TEMP:  77;

CANNON AFB     FAIR      80  14   8 SW17G26   29.70R
6HR MIN TEMP:  72; 6HR MAX TEMP:  82;

CLOVIS AIRPORT FAIR      81  21  11 SW24      29.71R

$$
NMZ028-029-538-290100-
SOUTHEAST PLAINS

CITY           SKY/WX    TMP DP  RH WIND       PRES   REMARKS
ROSWELL        FAIR      83  13   7 SW23G35   29.64S
6HR MIN TEMP:  81; 6HR MAX TEMP:  87;

ARTESIA        FAIR      84  18   8 SW23G31   29.66S
CARLSBAD       FAIR      87  12   6 SW9G23    29.63S
6HR MIN TEMP:  83; 6HR MAX TEMP:  89;

HOBBS          SUNNY     84  14   7 S21G28    29.68F


$$




USA.gov is the U.S. government's official web portal to all federal, state and local government web resources and services.